Flight Track Log - Related Links

Times and Time Zones

All times are in EDT time to prevent confusion due to time zone crossing. See the ASH2834 flight status page for this flight to view local times or setup timezone preferences in your user account.

Time Position Orientation Groundspeed Altitude Reporting Facility
EDT Latitude Longitude Course Direction KTS MPH feet Rate Location/Type
Thu 01:00:52 AM 33.4333 -112.0333 291° West 155 178 2,100  Level Phoenix TRACON
Thu 01:01:13 AM 33.4372 -112.0456 291° West 157 181 2,800 1,756 Climbing Albuquerque Center
Thu 01:02:14 AM 33.4169 -112.1158 251° West 225 259 4,500 2,331 Climbing Albuquerque Center
Thu 01:03:14 AM 33.3778 -112.1897 238° Southwest 280 322 7,500 3,273 Climbing Albuquerque Center
Thu 01:04:15 AM 33.3044 -112.1778 172° South 270 311 11,100 2,557 Climbing Albuquerque Center
Thu 01:05:16 AM 33.2303 -112.1294 151° Southeast 304 350 12,700 1,587 Climbing Albuquerque Center
Thu 01:06:16 AM 33.1433 -112.0739 152° Southeast 351 404 14,300 1,736 Climbing Albuquerque Center
Thu 01:07:17 AM 33.0503 -112.0142 152° Southeast 378 435 16,200 1,328 Climbing Albuquerque Center
Thu 01:08:18 AM 32.9550 -111.9528 152° Southeast 389 448 17,000 397 Climbing Albuquerque Center
Thu 01:09:18 AM 32.8631 -111.8883 150° Southeast 383 441 17,000 -248 Level Albuquerque Center
Thu 01:10:19 AM 32.7878 -111.8247 145° Southeast 335 386 16,500 -843 Descending Albuquerque Center
Thu 01:11:19 AM 32.7122 -111.7653 146° Southeast 327 376 15,300 -1,313 Descending Albuquerque Center
Thu 01:11:55 AM 32.6547 -111.7208 147° Southeast 332 382 14,400 -1,180 Descending Albuquerque Center
Thu 01:12:20 AM 32.6364 -111.7022 139° Southeast 333 383 14,100 -1,047 Descending Albuquerque Center
Thu 01:13:21 AM 32.5636 -111.6439 146° Southeast 323 372 12,900 -1,339 Descending Albuquerque Center
Thu 01:14:21 AM 32.5097 -111.5769 134° Southeast 288 331 11,400 -1,714 Descending Albuquerque Center
Thu 01:14:38 AM 32.4822 -111.5442 135° Southeast 285 328 10,700 -1,574 Descending Albuquerque Center
Thu 01:15:22 AM 32.4464 -111.4975 132° Southeast 278 320 9,800 -1,180 Descending Albuquerque Center
Thu 01:15:39 AM 32.4297 -111.4822 142° Southeast 270 311 9,500 -1,100 Descending Albuquerque Center
Thu 01:16:22 AM 32.3972 -111.4372 131° Southeast 262 302 8,700 -1,164 Descending Albuquerque Center
Thu 01:16:46 AM 32.3783 -111.4153 136° Southeast 259 298 8,200 -1,180 Descending Albuquerque Center
Thu 01:17:23 AM 32.3475 -111.3747 132° Southeast 261 300 7,500 -1,000 Descending Albuquerque Center
Thu 01:17:46 AM 32.3225 -111.3469 137° Southeast 265 305 7,200 -393 Descending Albuquerque Center
Thu 01:18:24 AM 32.2981 -111.3106 128° Southeast 263 303 7,100 -98 Descending Albuquerque Center
Thu 01:18:47 AM 32.2742 -111.2842 137° Southeast 264 304 7,100  Level Albuquerque Center
Thu 01:19:24 AM 32.2486 -111.2469 129° Southeast 265 305 7,100  Level Albuquerque Center
Thu 01:19:48 AM 32.2272 -111.2186 132° Southeast 261 300 7,100  Level Albuquerque Center
Thu 01:20:25 AM 32.2017 -111.1839 131° Southeast 258 297 7,100  Level Albuquerque Center
Thu 01:20:54 AM 32.1761 -111.1544 136° Southeast 253 291 7,100 -100 Level Albuquerque Center
Thu 01:21:25 AM 32.1558 -111.1239 128° Southeast 249 287 7,000 -590 Descending Albuquerque Center
Thu 01:21:55 AM 32.1325 -111.0956 134° Southeast 237 273 6,500 -1,082 Descending Albuquerque Center
Thu 01:22:26 AM 32.1167 -111.0642 121° Southeast 239 275 5,900 -1,377 Descending Albuquerque Center
Thu 01:22:56 AM 32.0947 -111.0328 130° Southeast 222 255 5,100 -787 Descending Albuquerque Center
Thu 01:23:27 AM 32.0806 -111.0064 122° Southeast 229 264 5,100 -100 Level Albuquerque Center
Thu 01:23:56 AM 32.0581 -110.9772 132° Southeast 213 245 5,000 -400 Descending Albuquerque Center
Thu 01:24:27 AM 32.0481 -110.9514 115° Southeast 218 251 4,700 -655 Descending Albuquerque Center
Thu 01:24:51 AM 32.0294 -110.9297 135° Southeast 196 226 4,400 -98 Descending Albuquerque Center
Thu 01:25:28 AM 32.0164 -110.8978 116° Southeast 215 247 4,600 -200 Climbing Albuquerque Center
Thu 01:25:51 AM 32.0519 -110.8808 22° Northeast 205 236 4,200 -1,000 Descending Albuquerque Center
Thu 01:26:52 AM 32.0867 -110.9042 330° Northwest 144 166 3,200 -984 Descending Albuquerque Center

Login

Don't have an account? Register now (free) for customized features, flight alerts, and more!